����25�N�x�@��C��������Ԃɂ�鑪�茋��,,,,,,,,,,,,,,
,,,,,,,,,,,,,,
�P�@����n�_,,,,,,,,,,,,,,
�t����s�Z�����i�t����s�Z���������u22�j,,,,,,,,,,,,,,
,,,,,,,,,,,,,,
�Q�@���Ԓl�i�m��l�j������25�N7��9���`����25�N7��31��,,,,,,,,,,,,,,
,,,,,,,,,,,,,,
,�N,��,��,��,SO2,SPM,Ox,CO,NO,NO2,���x,���x,����,����
,,,,,ppm,mg/m3,ppm,ppm,ppm,ppm,��,%,�P�U����,m/s
H02,2013,7,9,1,***,0.021 ,0.001 ,***,***,***,29.0 ,65.6 ,ESE,0.8 
H02,2013,7,9,2,0.001 ,0.034 ,0.002 ,0.3 ,0.021 ,0.013 ,29.1 ,66.8 ,ESE,0.5 
H02,2013,7,9,3,0.001 ,0.024 ,0.001 ,0.2 ,0.029 ,0.013 ,28.1 ,69.7 ,ESE,0.3 
H02,2013,7,9,4,0.001 ,0.030 ,0.001 ,0.2 ,0.032 ,0.015 ,27.2 ,74.1 ,NE,1.0 
H02,2013,7,9,5,0.001 ,0.026 ,0.001 ,0.2 ,0.033 ,0.015 ,27.6 ,72.2 ,ESE,0.6 
H02,2013,7,9,6,0.001 ,0.017 ,0.002 ,0.3 ,0.052 ,0.014 ,28.0 ,70.9 ,CALM,0.2 
H02,2013,7,9,7,0.001 ,0.031 ,0.004 ,0.2 ,0.020 ,0.011 ,29.7 ,63.6 ,NE,0.6 
H02,2013,7,9,8,0.001 ,0.026 ,0.008 ,0.2 ,0.018 ,0.011 ,30.7 ,60.0 ,NNE,0.9 
H02,2013,7,9,9,0.000 ,0.029 ,0.020 ,0.2 ,0.011 ,0.010 ,32.6 ,55.6 ,NNE,1.0 
H02,2013,7,9,10,0.001 ,0.035 ,0.036 ,0.2 ,0.006 ,0.012 ,34.8 ,47.2 ,SW,0.8 
H02,2013,7,9,11,0.001 ,0.030 ,0.050 ,0.2 ,0.005 ,0.011 ,35.6 ,44.6 ,NNW,0.9 
H02,2013,7,9,12,0.001 ,0.023 ,0.047 ,0.2 ,0.002 ,0.006 ,36.8 ,39.2 ,NW,1.1 
H02,2013,7,9,13,0.001 ,0.030 ,0.044 ,0.2 ,0.003 ,0.006 ,37.6 ,37.3 ,NNW,0.9 
H02,2013,7,9,14,0.001 ,0.031 ,0.052 ,0.2 ,0.002 ,0.005 ,39.1 ,35.2 ,NW,1.0 
H02,2013,7,9,15,0.001 ,0.035 ,0.055 ,0.2 ,0.004 ,0.011 ,38.0 ,37.8 ,SW,1.9 
H02,2013,7,9,16,0.001 ,0.027 ,0.059 ,0.2 ,0.004 ,0.012 ,38.5 ,35.9 ,SW,1.7 
H02,2013,7,9,17,0.001 ,0.040 ,0.047 ,0.2 ,0.005 ,0.013 ,37.7 ,36.6 ,SW,1.4 
H02,2013,7,9,18,0.001 ,0.041 ,0.041 ,0.2 ,0.003 ,0.011 ,36.5 ,39.2 ,SW,1.2 
H02,2013,7,9,19,0.001 ,0.045 ,0.044 ,0.2 ,0.002 ,0.014 ,35.4 ,44.6 ,SW,1.0 
H02,2013,7,9,20,0.001 ,0.054 ,0.055 ,0.3 ,0.002 ,0.021 ,33.9 ,53.1 ,SW,2.1 
H02,2013,7,9,21,0.002 ,0.049 ,0.043 ,0.4 ,0.009 ,0.028 ,33.0 ,56.5 ,SSE,1.2 
H02,2013,7,9,22,0.002 ,0.037 ,0.025 ,0.4 ,0.015 ,0.025 ,31.5 ,58.9 ,SE,1.3 
H02,2013,7,9,23,0.003 ,0.038 ,0.019 ,0.3 ,0.015 ,0.025 ,31.2 ,58.1 ,SE,0.8 
H02,2013,7,9,24,0.003 ,0.035 ,0.020 ,0.3 ,0.012 ,0.026 ,31.0 ,59.5 ,SE,0.6 
H02,2013,7,10,1,0.002 ,0.051 ,0.021 ,0.3 ,0.011 ,0.023 ,30.5 ,61.5 ,SE,0.5 
H02,2013,7,10,2,0.002 ,0.048 ,0.016 ,0.4 ,0.015 ,0.022 ,29.6 ,68.2 ,ENE,0.5 
H02,2013,7,10,3,0.002 ,0.046 ,0.009 ,0.3 ,0.003 ,0.026 ,28.8 ,70.3 ,NNE,0.4 
H02,2013,7,10,4,0.002 ,0.059 ,0.005 ,0.3 ,0.018 ,0.026 ,28.4 ,72.9 ,ESE,0.8 
H02,2013,7,10,5,0.002 ,0.051 ,0.005 ,0.4 ,0.025 ,0.023 ,27.7 ,74.9 ,ESE,0.6 
H02,2013,7,10,6,0.002 ,0.056 ,0.005 ,0.4 ,0.040 ,0.026 ,28.4 ,71.7 ,ENE,0.7 
H02,2013,7,10,7,0.002 ,0.061 ,0.008 ,0.4 ,0.027 ,0.025 ,30.2 ,64.5 ,N,0.4 
H02,2013,7,10,8,0.002 ,0.051 ,0.024 ,0.3 ,0.007 ,0.016 ,31.1 ,60.4 ,N,0.7 
H02,2013,7,10,9,0.003 ,0.048 ,0.037 ,0.2 ,0.003 ,0.010 ,32.3 ,55.1 ,WNW,0.8 
H02,2013,7,10,10,0.003 ,0.051 ,0.048 ,0.2 ,0.004 ,0.011 ,34.1 ,49.4 ,WSW,1.0 
H02,2013,7,10,11,0.002 ,0.047 ,0.063 ,0.2 ,0.002 ,0.009 ,35.9 ,45.9 ,N,1.5 
H02,2013,7,10,12,0.001 ,0.036 ,0.070 ,0.2 ,0.002 ,0.007 ,36.6 ,42.5 ,WNW,1.2 
H02,2013,7,10,13,0.002 ,0.034 ,0.066 ,0.2 ,0.003 ,0.009 ,37.0 ,42.5 ,WNW,1.5 
H02,2013,7,10,14,0.001 ,0.034 ,0.054 ,0.2 ,0.004 ,0.010 ,38.1 ,36.5 ,SW,2.3 
H02,2013,7,10,15,0.001 ,0.019 ,0.047 ,0.2 ,0.006 ,0.012 ,38.0 ,37.3 ,SW,2.0 
H02,2013,7,10,16,0.001 ,0.028 ,0.051 ,0.2 ,0.006 ,0.012 ,38.1 ,38.5 ,NW,1.2 
H02,2013,7,10,17,0.001 ,0.035 ,0.050 ,0.2 ,0.004 ,0.012 ,36.6 ,41.1 ,SW,2.3 
H02,2013,7,10,18,0.001 ,0.036 ,0.048 ,0.2 ,0.004 ,0.013 ,36.2 ,42.4 ,WSW,1.4 
H02,2013,7,10,19,0.001 ,0.040 ,0.047 ,0.2 ,0.002 ,0.010 ,35.4 ,44.2 ,N,0.3 
H02,2013,7,10,20,0.001 ,0.023 ,0.033 ,0.2 ,0.001 ,0.010 ,34.5 ,47.0 ,NNE,0.8 
H02,2013,7,10,21,0.000 ,0.014 ,0.018 ,0.3 ,0.008 ,0.019 ,33.9 ,51.4 ,SE,1.1 
H02,2013,7,10,22,0.002 ,0.065 ,0.021 ,0.4 ,0.022 ,0.029 ,32.2 ,58.4 ,ESE,1.2 
H02,2013,7,10,23,0.003 ,0.047 ,0.016 ,0.3 ,0.022 ,0.024 ,31.7 ,58.6 ,ESE,1.5 
H02,2013,7,10,24,0.002 ,0.046 ,0.017 ,0.3 ,0.018 ,0.022 ,31.1 ,61.0 ,SE,0.8 
H02,2013,7,11,1,0.002 ,0.049 ,0.015 ,0.3 ,0.013 ,0.020 ,30.8 ,61.9 ,ESE,0.6 
H02,2013,7,11,2,0.002 ,0.062 ,0.012 ,0.3 ,0.006 ,0.023 ,30.0 ,64.6 ,CALM,0.2 
H02,2013,7,11,3,0.002 ,0.054 ,0.010 ,0.3 ,0.013 ,0.025 ,29.1 ,69.6 ,S,0.8 
H02,2013,7,11,4,0.002 ,0.045 ,0.004 ,0.3 ,0.030 ,0.027 ,29.3 ,69.3 ,SSE,0.5 
H02,2013,7,11,5,0.002 ,0.054 ,0.003 ,0.3 ,0.036 ,0.025 ,28.3 ,72.2 ,ESE,0.7 
H02,2013,7,11,6,0.002 ,0.042 ,0.004 ,0.3 ,0.040 ,0.026 ,28.8 ,70.4 ,SE,0.5 
H02,2013,7,11,7,0.002 ,0.040 ,0.009 ,0.4 ,0.036 ,0.025 ,30.6 ,62.2 ,NNW,0.5 
H02,2013,7,11,8,0.002 ,0.040 ,0.023 ,0.2 ,0.005 ,0.012 ,31.7 ,59.8 ,NNW,0.5 
H02,2013,7,11,9,0.002 ,0.037 ,0.032 ,0.2 ,0.004 ,0.009 ,32.9 ,54.7 ,WNW,0.8 
H02,2013,7,11,10,0.002 ,0.041 ,0.045 ,0.2 ,0.004 ,0.009 ,34.1 ,50.6 ,NNW,1.0 
H02,2013,7,11,11,0.002 ,0.052 ,0.057 ,0.2 ,0.002 ,0.008 ,35.3 ,48.8 ,WSW,1.2 
H02,2013,7,11,12,0.001 ,0.037 ,0.062 ,0.2 ,0.003 ,0.010 ,36.5 ,46.2 ,SSW,1.6 
H02,2013,7,11,13,0.001 ,0.030 ,0.062 ,0.2 ,0.003 ,0.010 ,37.1 ,43.8 ,W,1.3 
H02,2013,7,11,14,0.001 ,0.035 ,0.060 ,0.2 ,0.004 ,0.012 ,37.4 ,40.3 ,SW,2.2 
H02,2013,7,11,15,0.001 ,0.029 ,0.057 ,0.2 ,0.003 ,0.009 ,37.8 ,40.7 ,W,1.6 
H02,2013,7,11,16,0.001 ,0.037 ,0.050 ,0.2 ,0.004 ,0.012 ,38.3 ,36.7 ,WSW,1.7 
H02,2013,7,11,17,0.001 ,0.031 ,0.041 ,0.2 ,0.005 ,0.012 ,37.5 ,35.8 ,WSW,2.2 
H02,2013,7,11,18,0.001 ,0.036 ,0.041 ,0.2 ,0.004 ,0.014 ,36.3 ,39.9 ,SW,2.0 
H02,2013,7,11,19,0.002 ,0.042 ,0.038 ,0.2 ,0.005 ,0.018 ,35.9 ,42.7 ,SSW,0.9 
H02,2013,7,11,20,0.002 ,0.039 ,0.044 ,0.2 ,0.001 ,0.012 ,35.1 ,33.8 ,NNW,0.3 
H02,2013,7,11,21,0.001 ,0.016 ,0.011 ,0.2 ,0.001 ,0.019 ,34.8 ,35.8 ,CALM,0.2 
H02,2013,7,11,22,0.001 ,0.024 ,0.011 ,0.3 ,0.008 ,0.025 ,33.2 ,45.1 ,E,1.2 
H02,2013,7,11,23,0.001 ,0.027 ,0.021 ,0.3 ,0.005 ,0.020 ,31.3 ,61.0 ,NW,0.7 
H02,2013,7,11,24,0.002 ,0.043 ,0.035 ,0.2 ,0.001 ,0.010 ,30.6 ,61.9 ,NNW,0.5 
H02,2013,7,12,1,0.001 ,0.035 ,0.025 ,0.2 ,0.001 ,0.012 ,30.2 ,60.4 ,CALM,0.1 
H02,2013,7,12,2,0.002 ,0.030 ,0.009 ,0.2 ,0.002 ,0.019 ,29.3 ,60.2 ,CALM,0.2 
H02,2013,7,12,3,0.005 ,0.026 ,0.002 ,0.2 ,0.009 ,0.023 ,28.4 ,62.1 ,CALM,0.2 
H02,2013,7,12,4,0.004 ,0.037 ,0.001 ,0.3 ,0.035 ,0.028 ,28.2 ,64.2 ,ESE,0.9 
H02,2013,7,12,5,0.002 ,0.038 ,0.002 ,0.2 ,0.028 ,0.025 ,27.7 ,66.8 ,SSE,0.6 
H02,2013,7,12,6,0.002 ,0.034 ,0.003 ,0.3 ,0.047 ,0.026 ,28.1 ,65.9 ,ENE,0.9 
H02,2013,7,12,7,0.002 ,0.035 ,0.006 ,0.3 ,0.025 ,0.024 ,29.4 ,60.7 ,NNE,0.6 
H02,2013,7,12,8,0.002 ,0.031 ,0.018 ,0.2 ,0.013 ,0.018 ,30.6 ,59.4 ,WNW,0.5 
H02,2013,7,12,9,0.002 ,0.033 ,0.031 ,0.2 ,0.007 ,0.014 ,32.2 ,55.7 ,N,0.7 
H02,2013,7,12,10,0.002 ,0.037 ,0.050 ,0.3 ,0.007 ,0.014 ,33.9 ,51.0 ,S,0.6 
H02,2013,7,12,11,0.001 ,0.040 ,0.064 ,0.3 ,0.004 ,0.013 ,35.4 ,46.1 ,SW,1.5 
H02,2013,7,12,12,0.002 ,0.047 ,0.075 ,0.2 ,0.002 ,0.010 ,36.5 ,44.8 ,N,1.2 
H02,2013,7,12,13,0.004 ,0.061 ,0.065 ,0.2 ,0.004 ,0.012 ,37.3 ,41.9 ,WSW,2.3 
H02,2013,7,12,14,0.005 ,0.053 ,0.061 ,0.2 ,0.003 ,0.011 ,37.7 ,40.8 ,SW,2.1 
H02,2013,7,12,15,0.005 ,0.062 ,0.066 ,0.2 ,0.003 ,0.012 ,37.9 ,38.3 ,WNW,1.3 
H02,2013,7,12,16,0.004 ,0.062 ,0.066 ,0.2 ,0.003 ,0.013 ,37.7 ,38.5 ,SW,3.2 
H02,2013,7,12,17,0.003 ,0.064 ,0.064 ,0.2 ,0.003 ,0.016 ,36.5 ,42.5 ,WSW,2.0 
H02,2013,7,12,18,0.003 ,0.058 ,0.060 ,0.2 ,0.002 ,0.014 ,36.3 ,42.2 ,SW,1.5 
H02,2013,7,12,19,0.002 ,0.053 ,0.054 ,0.2 ,0.002 ,0.012 ,35.2 ,44.7 ,NNW,1.2 
H02,2013,7,12,20,0.002 ,0.046 ,0.056 ,0.2 ,0.000 ,0.009 ,33.9 ,49.2 ,NW,0.3 
H02,2013,7,12,21,0.002 ,0.050 ,0.050 ,0.3 ,0.000 ,0.013 ,33.3 ,51.2 ,CALM,0.1 
H02,2013,7,12,22,0.003 ,0.050 ,0.036 ,0.3 ,0.001 ,0.021 ,32.9 ,54.3 ,CALM,0.0 
H02,2013,7,12,23,0.003 ,0.080 ,0.035 ,0.3 ,0.003 ,0.017 ,31.5 ,63.2 ,NNW,0.4 
H02,2013,7,12,24,0.003 ,0.070 ,0.038 ,0.3 ,0.002 ,0.014 ,30.9 ,65.3 ,N,0.4 
H02,2013,7,13,1,0.003 ,0.081 ,0.031 ,0.2 ,0.001 ,0.014 ,30.5 ,62.8 ,NNE,0.9 
H02,2013,7,13,2,0.003 ,0.073 ,0.025 ,0.3 ,0.002 ,0.014 ,30.3 ,65.0 ,NNE,0.8 
H02,2013,7,13,3,0.003 ,0.067 ,0.010 ,0.3 ,0.010 ,0.024 ,29.0 ,69.3 ,NNE,0.4 
H02,2013,7,13,4,0.003 ,0.046 ,0.007 ,0.3 ,0.012 ,0.024 ,29.3 ,66.6 ,ESE,0.8 
H02,2013,7,13,5,0.002 ,0.079 ,0.008 ,0.3 ,0.015 ,0.021 ,29.0 ,67.2 ,ESE,0.6 
H02,2013,7,13,6,0.002 ,0.060 ,0.007 ,0.3 ,0.029 ,0.023 ,28.9 ,67.1 ,ENE,0.9 
H02,2013,7,13,7,0.002 ,0.054 ,0.009 ,0.4 ,0.023 ,0.025 ,29.3 ,65.6 ,N,0.6 
H02,2013,7,13,8,0.002 ,0.064 ,0.016 ,0.3 ,0.009 ,0.022 ,30.5 ,65.0 ,WNW,0.3 
H02,2013,7,13,9,0.002 ,0.056 ,0.026 ,0.2 ,0.004 ,0.014 ,31.5 ,63.0 ,NW,0.5 
H02,2013,7,13,10,0.002 ,0.051 ,0.034 ,0.2 ,0.004 ,0.010 ,32.0 ,63.3 ,NW,0.8 
H02,2013,7,13,11,0.002 ,0.054 ,0.044 ,0.2 ,0.002 ,0.009 ,32.6 ,60.0 ,N,0.9 
H02,2013,7,13,12,0.002 ,0.049 ,0.051 ,0.2 ,0.001 ,0.007 ,31.8 ,60.8 ,N,0.9 
H02,2013,7,13,13,0.001 ,0.050 ,0.054 ,0.3 ,0.001 ,0.007 ,32.9 ,57.5 ,W,0.6 
H02,2013,7,13,14,0.001 ,0.037 ,0.049 ,0.3 ,0.006 ,0.013 ,34.6 ,52.4 ,W,0.9 
H02,2013,7,13,15,0.001 ,0.043 ,0.052 ,0.2 ,0.004 ,0.011 ,33.2 ,56.9 ,SW,2.7 
H02,2013,7,13,16,0.001 ,0.062 ,0.038 ,0.2 ,0.004 ,0.012 ,32.2 ,61.9 ,SW,2.5 
H02,2013,7,13,17,0.001 ,0.042 ,0.023 ,0.2 ,0.005 ,0.009 ,32.4 ,59.3 ,NW,0.8 
H02,2013,7,13,18,0.002 ,0.042 ,0.015 ,0.2 ,0.005 ,0.009 ,31.5 ,62.1 ,WNW,0.6 
H02,2013,7,13,19,0.002 ,0.057 ,0.016 ,0.2 ,0.006 ,0.011 ,28.9 ,79.0 ,WSW,0.8 
H02,2013,7,13,20,0.001 ,0.034 ,0.014 ,0.2 ,0.007 ,0.010 ,27.3 ,90.3 ,NNW,0.3 
H02,2013,7,13,21,0.000 ,0.022 ,0.015 ,0.2 ,0.001 ,0.007 ,25.8 ,98.5 ,N,0.8 
H02,2013,7,13,22,0.000 ,0.018 ,0.012 ,0.2 ,0.002 ,0.007 ,25.7 ,98.1 ,CALM,0.2 
H02,2013,7,13,23,0.001 ,0.026 ,0.009 ,0.2 ,0.002 ,0.008 ,25.6 ,95.2 ,NNE,0.9 
H02,2013,7,13,24,0.001 ,0.024 ,0.005 ,0.2 ,0.007 ,0.010 ,25.8 ,95.2 ,S,0.6 
H02,2013,7,14,1,0.001 ,0.014 ,0.007 ,0.3 ,0.007 ,0.008 ,25.4 ,89.3 ,NNE,0.6 
H02,2013,7,14,2,0.000 ,0.030 ,0.006 ,0.1 ,0.001 ,0.008 ,25.3 ,84.6 ,NNE,1.3 
H02,2013,7,14,3,0.000 ,0.015 ,0.009 ,0.1 ,0.002 ,0.006 ,25.5 ,83.4 ,NE,0.9 
H02,2013,7,14,4,0.000 ,0.008 ,0.010 ,0.1 ,0.003 ,0.005 ,25.0 ,87.7 ,NNE,0.7 
H02,2013,7,14,5,0.000 ,0.013 ,0.012 ,0.1 ,0.001 ,0.005 ,24.6 ,88.6 ,NNE,0.9 
H02,2013,7,14,6,0.000 ,0.013 ,0.010 ,0.1 ,0.001 ,0.005 ,24.9 ,86.9 ,N,0.6 
H02,2013,7,14,7,0.000 ,0.006 ,0.010 ,0.1 ,0.003 ,0.004 ,26.3 ,80.3 ,N,0.4 
H02,2013,7,14,8,0.001 ,0.029 ,0.009 ,0.2 ,0.016 ,0.005 ,27.2 ,75.8 ,E,0.9 
H02,2013,7,14,9,0.000 ,0.017 ,0.016 ,0.2 ,0.005 ,0.005 ,29.1 ,68.0 ,NE,1.0 
H02,2013,7,14,10,0.000 ,0.011 ,0.024 ,0.2 ,0.004 ,0.004 ,31.5 ,60.7 ,NE,1.1 
H02,2013,7,14,11,0.000 ,0.008 ,0.028 ,0.1 ,0.001 ,0.003 ,32.1 ,58.5 ,NNE,1.3 
H02,2013,7,14,12,0.001 ,0.019 ,0.030 ,0.1 ,0.001 ,0.003 ,33.1 ,52.8 ,N,1.0 
H02,2013,7,14,13,0.000 ,0.012 ,0.027 ,0.1 ,0.001 ,0.002 ,34.1 ,49.8 ,NW,1.0 
H02,2013,7,14,14,0.000 ,0.038 ,0.030 ,0.2 ,0.004 ,0.006 ,31.8 ,63.7 ,SW,1.9 
H02,2013,7,14,15,0.000 ,0.034 ,0.028 ,0.2 ,0.005 ,0.007 ,31.8 ,66.1 ,WNW,0.7 
H02,2013,7,14,16,0.000 ,0.010 ,0.023 ,0.2 ,0.004 ,0.005 ,31.7 ,62.7 ,NE,1.1 
H02,2013,7,14,17,0.001 ,0.016 ,0.022 ,0.2 ,0.007 ,0.008 ,31.8 ,59.1 ,ENE,0.8 
H02,2013,7,14,18,0.000 ,0.022 ,0.024 ,0.2 ,0.002 ,0.007 ,31.2 ,63.0 ,WSW,0.8 
H02,2013,7,14,19,0.001 ,0.016 ,0.019 ,0.2 ,0.002 ,0.008 ,30.6 ,65.8 ,NNW,0.6 
H02,2013,7,14,20,0.001 ,0.036 ,0.016 ,0.2 ,0.001 ,0.007 ,29.7 ,69.5 ,CALM,0.2 
H02,2013,7,14,21,0.001 ,0.036 ,0.013 ,0.2 ,0.001 ,0.009 ,29.3 ,70.8 ,CALM,0.2 
H02,2013,7,14,22,0.001 ,0.028 ,0.011 ,0.2 ,0.003 ,0.011 ,28.7 ,74.2 ,SW,1.7 
H02,2013,7,14,23,0.001 ,0.016 ,0.012 ,0.2 ,0.002 ,0.009 ,28.2 ,76.2 ,SW,0.7 
H02,2013,7,14,24,0.001 ,0.025 ,0.010 ,0.2 ,0.003 ,0.010 ,28.1 ,74.9 ,WSW,1.2 
H02,2013,7,15,1,***,0.027 ,0.010 ,***,***,***,28.2 ,73.9 ,N,0.4 
H02,2013,7,15,2,0.001 ,0.027 ,0.015 ,0.1 ,0.001 ,0.005 ,27.3 ,74.1 ,CALM,0.1 
H02,2013,7,15,3,0.001 ,0.018 ,0.012 ,0.2 ,0.003 ,0.008 ,26.6 ,77.7 ,NNE,0.7 
H02,2013,7,15,4,0.000 ,0.016 ,0.009 ,0.2 ,0.003 ,0.009 ,25.5 ,92.4 ,CALM,0.2 
H02,2013,7,15,5,0.001 ,0.018 ,0.011 ,0.2 ,0.002 ,0.007 ,24.5 ,98.7 ,CALM,0.0 
H02,2013,7,15,6,0.000 ,0.024 ,0.012 ,0.2 ,0.003 ,0.008 ,24.6 ,98.2 ,N,0.5 
H02,2013,7,15,7,0.001 ,0.013 ,0.018 ,0.2 ,0.003 ,0.006 ,25.5 ,93.5 ,WNW,0.5 
H02,2013,7,15,8,0.001 ,0.035 ,0.019 ,0.2 ,0.003 ,0.006 ,27.0 ,86.4 ,CALM,0.2 
H02,2013,7,15,9,0.000 ,0.025 ,0.024 ,0.2 ,0.002 ,0.005 ,29.3 ,72.6 ,NW,0.7 
H02,2013,7,15,10,0.000 ,0.007 ,0.037 ,0.2 ,0.002 ,0.004 ,32.1 ,50.6 ,N,1.1 
H02,2013,7,15,11,0.000 ,0.001 ,0.044 ,0.1 ,0.001 ,0.003 ,32.0 ,51.9 ,NNW,1.2 
H02,2013,7,15,12,0.000 ,0.010 ,0.048 ,0.2 ,0.001 ,0.003 ,32.1 ,54.3 ,NW,0.8 
H02,2013,7,15,13,0.001 ,0.010 ,0.041 ,0.2 ,0.004 ,0.008 ,32.0 ,54.8 ,SW,2.2 
H02,2013,7,15,14,0.000 ,0.010 ,0.039 ,0.2 ,0.004 ,0.007 ,32.5 ,51.8 ,NW,0.9 
H02,2013,7,15,15,0.001 ,0.019 ,0.040 ,0.2 ,0.006 ,0.009 ,32.5 ,49.5 ,WSW,1.6 
H02,2013,7,15,16,0.001 ,0.013 ,0.038 ,0.2 ,0.005 ,0.010 ,32.6 ,51.9 ,WSW,1.9 
H02,2013,7,15,17,0.001 ,0.015 ,0.040 ,0.2 ,0.004 ,0.009 ,31.7 ,49.7 ,WNW,1.4 
H02,2013,7,15,18,0.000 ,0.009 ,0.040 ,0.2 ,0.001 ,0.005 ,31.0 ,50.9 ,NW,1.4 
H02,2013,7,15,19,0.000 ,0.009 ,0.040 ,0.2 ,0.002 ,0.005 ,29.8 ,52.0 ,NW,1.4 
H02,2013,7,15,20,0.000 ,0.013 ,0.040 ,0.2 ,0.000 ,0.004 ,29.1 ,55.7 ,NW,1.2 
H02,2013,7,15,21,0.000 ,0.007 ,0.035 ,0.2 ,0.001 ,0.006 ,28.5 ,59.1 ,NW,0.9 
H02,2013,7,15,22,0.000 ,0.008 ,0.032 ,0.2 ,0.000 ,0.006 ,28.2 ,62.3 ,NW,0.4 
H02,2013,7,15,23,0.000 ,0.015 ,0.032 ,0.2 ,0.001 ,0.007 ,27.8 ,60.3 ,NE,0.6 
H02,2013,7,15,24,0.000 ,0.004 ,0.031 ,0.2 ,0.002 ,0.008 ,27.1 ,62.4 ,CALM,0.2 
H02,2013,7,16,1,0.000 ,0.010 ,0.031 ,0.1 ,0.001 ,0.007 ,26.3 ,65.7 ,NE,0.4 
H02,2013,7,16,2,0.000 ,0.009 ,0.018 ,0.2 ,0.007 ,0.019 ,25.5 ,69.5 ,NE,0.7 
H02,2013,7,16,3,0.000 ,0.022 ,0.015 ,0.2 ,0.001 ,0.019 ,25.1 ,70.5 ,NNE,0.8 
H02,2013,7,16,4,0.001 ,0.026 ,0.011 ,0.2 ,0.016 ,0.016 ,24.9 ,73.1 ,SSE,0.7 
H02,2013,7,16,5,0.002 ,0.021 ,0.006 ,0.2 ,0.013 ,0.019 ,25.1 ,73.6 ,SE,0.5 
H02,2013,7,16,6,0.002 ,0.015 ,0.003 ,0.3 ,0.042 ,0.023 ,24.8 ,75.0 ,E,0.7 
H02,2013,7,16,7,0.002 ,0.036 ,0.007 ,0.4 ,0.053 ,0.020 ,26.3 ,69.8 ,E,0.5 
H02,2013,7,16,8,0.001 ,0.021 ,0.013 ,0.3 ,0.019 ,0.014 ,27.8 ,63.3 ,ENE,0.7 
H02,2013,7,16,9,0.001 ,0.018 ,0.025 ,0.2 ,0.009 ,0.011 ,28.5 ,59.7 ,WSW,0.6 
H02,2013,7,16,10,0.000 ,0.015 ,0.034 ,0.2 ,0.005 ,0.009 ,29.8 ,54.4 ,N,0.7 
H02,2013,7,16,11,0.001 ,0.015 ,0.047 ,0.2 ,0.004 ,0.010 ,30.3 ,50.2 ,NW,0.9 
H02,2013,7,16,12,0.001 ,0.016 ,0.057 ,0.2 ,0.003 ,0.011 ,31.8 ,46.2 ,NW,0.6 
H02,2013,7,16,13,0.001 ,0.024 ,0.063 ,0.2 ,0.005 ,0.014 ,32.4 ,47.2 ,W,1.2 
H02,2013,7,16,14,0.001 ,0.022 ,0.064 ,0.2 ,0.008 ,0.018 ,33.6 ,43.7 ,SW,1.2 
H02,2013,7,16,15,0.001 ,0.020 ,0.061 ,0.3 ,0.005 ,0.019 ,32.9 ,50.0 ,WSW,2.3 
H02,2013,7,16,16,0.002 ,0.014 ,0.060 ,0.3 ,0.004 ,0.016 ,32.9 ,50.4 ,SW,2.8 
H02,2013,7,16,17,0.004 ,0.031 ,0.047 ,0.4 ,0.011 ,0.027 ,32.1 ,52.0 ,SSW,2.4 
H02,2013,7,16,18,0.005 ,0.026 ,0.039 ,0.5 ,0.015 ,0.029 ,31.3 ,55.0 ,S,2.6 
H02,2013,7,16,19,0.004 ,0.019 ,0.033 ,0.4 ,0.017 ,0.026 ,30.0 ,56.1 ,S,2.3 
H02,2013,7,16,20,0.003 ,0.014 ,0.032 ,0.4 ,0.014 ,0.018 ,28.4 ,64.5 ,S,2.5 
H02,2013,7,16,21,0.002 ,0.015 ,0.031 ,0.3 ,0.012 ,0.016 ,27.6 ,68.9 ,S,1.9 
H02,2013,7,16,22,0.002 ,0.023 ,0.026 ,0.3 ,0.015 ,0.018 ,27.2 ,69.0 ,SSE,1.7 
H02,2013,7,16,23,0.001 ,0.020 ,0.029 ,0.2 ,0.010 ,0.014 ,26.8 ,73.0 ,SSE,1.3 
H02,2013,7,16,24,0.001 ,0.016 ,0.032 ,0.2 ,0.007 ,0.011 ,26.3 ,71.4 ,S,2.1 
H02,2013,7,17,1,0.001 ,0.013 ,0.034 ,0.2 ,0.013 ,0.012 ,26.6 ,70.1 ,SSE,2.0 
H02,2013,7,17,2,0.002 ,0.024 ,0.032 ,0.2 ,0.010 ,0.011 ,26.2 ,73.0 ,SSE,1.9 
H02,2013,7,17,3,0.002 ,0.022 ,0.032 ,0.2 ,0.008 ,0.010 ,25.7 ,73.9 ,SE,1.0 
H02,2013,7,17,4,0.002 ,0.011 ,0.027 ,0.2 ,0.011 ,0.015 ,26.1 ,71.2 ,SSE,0.8 
H02,2013,7,17,5,0.003 ,0.030 ,0.024 ,0.2 ,0.015 ,0.017 ,26.1 ,69.7 ,SE,0.7 
H02,2013,7,17,6,0.003 ,0.019 ,0.017 ,0.3 ,0.031 ,0.028 ,26.1 ,70.0 ,SSE,0.4 
H02,2013,7,17,7,0.003 ,0.025 ,0.016 ,0.4 ,0.045 ,0.029 ,27.6 ,63.2 ,SE,0.7 
H02,2013,7,17,8,0.002 ,0.034 ,0.023 ,0.3 ,0.033 ,0.022 ,28.1 ,65.5 ,SE,0.7 
H02,2013,7,17,9,0.002 ,0.018 ,0.026 ,0.3 ,0.025 ,0.021 ,28.5 ,64.6 ,S,1.1 
H02,2013,7,17,10,0.002 ,0.023 ,0.025 ,0.4 ,0.037 ,0.028 ,28.0 ,66.8 ,E,1.0 
H02,2013,7,17,11,0.001 ,0.023 ,0.034 ,0.4 ,0.027 ,0.023 ,30.0 ,60.9 ,E,1.0 
H02,2013,7,17,12,0.001 ,0.028 ,0.044 ,0.4 ,0.017 ,0.022 ,32.1 ,54.0 ,SE,1.4 
H02,2013,7,17,13,0.001 ,0.030 ,0.060 ,0.5 ,0.014 ,0.025 ,32.0 ,54.3 ,SSE,1.3 
H02,2013,7,17,14,0.001 ,0.050 ,0.068 ,0.4 ,0.011 ,0.026 ,32.4 ,54.3 ,S,0.9 
H02,2013,7,17,15,0.002 ,0.036 ,0.059 ,0.5 ,0.019 ,0.034 ,32.7 ,53.7 ,SSW,1.5 
H02,2013,7,17,16,0.002 ,0.035 ,0.060 ,0.4 ,0.016 ,0.028 ,33.7 ,50.6 ,S,1.9 
H02,2013,7,17,17,0.002 ,0.036 ,0.055 ,0.4 ,0.014 ,0.026 ,31.8 ,56.6 ,S,2.2 
H02,2013,7,17,18,0.002 ,0.040 ,0.051 ,0.4 ,0.010 ,0.020 ,31.0 ,60.5 ,S,2.8 
H02,2013,7,17,19,0.003 ,0.031 ,0.037 ,0.4 ,0.016 ,0.022 ,30.3 ,62.5 ,S,1.7 
H02,2013,7,17,20,0.002 ,0.019 ,0.031 ,0.4 ,0.016 ,0.020 ,29.6 ,67.3 ,SSE,2.2 
H02,2013,7,17,21,0.001 ,0.027 ,0.027 ,0.3 ,0.013 ,0.017 ,28.8 ,72.8 ,SSE,1.8 
H02,2013,7,17,22,0.001 ,0.038 ,0.029 ,0.3 ,0.010 ,0.014 ,28.2 ,76.7 ,SSE,1.7 
H02,2013,7,17,23,0.001 ,0.025 ,0.032 ,0.2 ,0.009 ,0.011 ,27.5 ,79.2 ,S,2.9 
H02,2013,7,17,24,0.001 ,0.021 ,0.032 ,0.2 ,0.006 ,0.008 ,27.5 ,80.9 ,S,2.4 
H02,2013,7,18,1,0.001 ,0.041 ,0.027 ,0.2 ,0.009 ,0.011 ,26.2 ,92.4 ,SW,1.4 
H02,2013,7,18,2,0.001 ,0.036 ,0.023 ,0.2 ,0.005 ,0.013 ,25.8 ,98.5 ,E,0.5 
H02,2013,7,18,3,0.001 ,0.032 ,0.017 ,0.2 ,0.012 ,0.017 ,25.8 ,97.9 ,ESE,1.0 
H02,2013,7,18,4,0.001 ,0.026 ,0.015 ,0.2 ,0.015 ,0.016 ,25.8 ,97.6 ,NE,0.5 
H02,2013,7,18,5,0.001 ,0.020 ,0.008 ,0.2 ,0.014 ,0.021 ,25.8 ,97.3 ,NNE,0.7 
H02,2013,7,18,6,0.001 ,0.047 ,0.006 ,0.3 ,0.041 ,0.025 ,26.1 ,95.9 ,SE,0.8 
H02,2013,7,18,7,0.002 ,0.056 ,0.007 ,0.5 ,0.055 ,0.025 ,26.8 ,92.3 ,SE,0.5 
H02,2013,7,18,8,0.001 ,0.042 ,0.006 ,0.6 ,0.062 ,0.028 ,26.8 ,95.9 ,CALM,0.0 
H02,2013,7,18,9,0.001 ,0.021 ,0.017 ,0.2 ,0.005 ,0.014 ,26.7 ,89.5 ,NW,0.5 
H02,2013,7,18,10,0.001 ,0.025 ,0.023 ,0.2 ,0.009 ,0.012 ,29.6 ,73.5 ,W,0.8 
H02,2013,7,18,11,0.001 ,0.031 ,0.035 ,0.2 ,0.006 ,0.011 ,30.6 ,63.8 ,NNW,0.3 
H02,2013,7,18,12,0.001 ,0.016 ,0.049 ,0.2 ,0.003 ,0.007 ,32.9 ,50.2 ,WNW,1.2 
H02,2013,7,18,13,0.000 ,0.009 ,0.053 ,0.2 ,0.002 ,0.005 ,33.7 ,41.9 ,NNW,1.3 
H02,2013,7,18,14,0.001 ,0.022 ,0.050 ,0.2 ,0.004 ,0.009 ,33.8 ,45.9 ,WSW,1.8 
H02,2013,7,18,15,0.001 ,0.015 ,0.047 ,0.2 ,0.008 ,0.011 ,34.2 ,42.2 ,NW,1.7 
H02,2013,7,18,16,0.000 ,0.021 ,0.043 ,0.2 ,0.008 ,0.012 ,33.5 ,46.0 ,WSW,2.3 
H02,2013,7,18,17,0.000 ,0.014 ,0.044 ,0.2 ,0.003 ,0.008 ,32.4 ,43.6 ,NW,1.7 
H02,2013,7,18,18,0.000 ,0.006 ,0.044 ,0.2 ,0.001 ,0.004 ,30.7 ,47.1 ,NW,2.1 
H02,2013,7,18,19,0.000 ,0.008 ,0.041 ,0.2 ,0.002 ,0.006 ,29.6 ,49.4 ,NW,1.6 
H02,2013,7,18,20,0.001 ,0.013 ,0.034 ,0.2 ,0.004 ,0.012 ,28.3 ,59.2 ,SW,1.1 
H02,2013,7,18,21,0.001 ,0.022 ,0.032 ,0.2 ,0.003 ,0.012 ,27.8 ,60.3 ,W,0.8 
H02,2013,7,18,22,0.001 ,0.015 ,0.031 ,0.2 ,0.002 ,0.012 ,27.3 ,62.2 ,CALM,0.2 
H02,2013,7,18,23,0.001 ,0.014 ,0.030 ,0.2 ,0.002 ,0.012 ,26.9 ,64.9 ,SW,0.8 
H02,2013,7,18,24,0.001 ,0.014 ,0.029 ,0.2 ,0.002 ,0.012 ,26.1 ,66.3 ,SW,1.3 
H02,2013,7,19,1,0.001 ,0.015 ,0.032 ,0.2 ,0.002 ,0.008 ,25.7 ,68.4 ,NNW,0.4 
H02,2013,7,19,2,0.001 ,0.018 ,0.028 ,0.1 ,0.001 ,0.009 ,25.1 ,72.5 ,N,0.3 
H02,2013,7,19,3,0.001 ,0.008 ,0.026 ,0.2 ,0.000 ,0.009 ,24.8 ,72.7 ,CALM,0.2 
H02,2013,7,19,4,0.001 ,0.018 ,0.023 ,0.2 ,0.000 ,0.009 ,24.3 ,74.5 ,N,0.4 
H02,2013,7,19,5,0.001 ,0.012 ,0.021 ,0.1 ,0.001 ,0.009 ,23.8 ,76.8 ,N,0.3 
H02,2013,7,19,6,0.001 ,0.004 ,0.018 ,0.2 ,0.002 ,0.012 ,25.1 ,72.3 ,NW,0.4 
H02,2013,7,19,7,0.001 ,0.010 ,0.022 ,0.1 ,0.004 ,0.010 ,26.7 ,65.8 ,NNW,0.3 
H02,2013,7,19,8,0.001 ,0.011 ,0.029 ,0.2 ,0.003 ,0.006 ,27.8 ,56.4 ,NW,0.7 
H02,2013,7,19,9,0.000 ,0.003 ,0.036 ,0.1 ,0.002 ,0.005 ,29.4 ,49.8 ,NNE,1.1 
H02,2013,7,19,10,0.000 ,0.006 ,0.041 ,0.2 ,0.003 ,0.007 ,30.5 ,47.9 ,NW,0.8 
H02,2013,7,19,11,0.001 ,0.008 ,0.048 ,0.2 ,0.003 ,0.008 ,30.2 ,45.7 ,N,0.9 
H02,2013,7,19,12,0.001 ,0.009 ,0.056 ,0.2 ,0.003 ,0.010 ,31.2 ,43.5 ,SW,1.8 
H02,2013,7,19,13,0.001 ,0.008 ,0.066 ,0.2 ,0.003 ,0.011 ,32.3 ,40.6 ,SSW,1.2 
H02,2013,7,19,14,0.001 ,0.016 ,0.068 ,0.2 ,0.008 ,0.016 ,33.3 ,39.3 ,SW,1.4 
H02,2013,7,19,15,0.001 ,0.023 ,0.077 ,0.2 ,0.004 ,0.013 ,33.1 ,38.3 ,NNW,0.7 
H02,2013,7,19,16,0.001 ,0.014 ,0.080 ,0.2 ,0.002 ,0.009 ,33.4 ,38.0 ,WNW,0.8 
H02,2013,7,19,17,0.001 ,0.013 ,0.068 ,0.2 ,0.002 ,0.011 ,32.4 ,42.5 ,SW,1.4 
H02,2013,7,19,18,0.001 ,0.022 ,0.054 ,0.2 ,0.001 ,0.009 ,31.1 ,48.4 ,NW,0.9 
H02,2013,7,19,19,0.001 ,0.014 ,0.038 ,0.2 ,0.003 ,0.012 ,29.1 ,55.8 ,W,0.8 
H02,2013,7,19,20,0.001 ,0.014 ,0.031 ,0.2 ,0.004 ,0.014 ,27.8 ,59.8 ,SW,0.8 
H02,2013,7,19,21,0.001 ,0.013 ,0.031 ,0.2 ,0.001 ,0.010 ,27.3 ,60.5 ,W,0.4 
H02,2013,7,19,22,0.001 ,0.014 ,0.031 ,0.2 ,0.002 ,0.010 ,26.8 ,62.1 ,CALM,0.2 
H02,2013,7,19,23,0.001 ,0.012 ,0.032 ,0.2 ,0.000 ,0.008 ,26.3 ,64.3 ,CALM,0.2 
H02,2013,7,19,24,0.001 ,0.012 ,0.030 ,0.2 ,0.001 ,0.008 ,25.7 ,66.9 ,CALM,0.1 
H02,2013,7,20,1,0.001 ,0.019 ,0.025 ,0.2 ,0.003 ,0.012 ,26.0 ,65.4 ,CALM,0.1 
H02,2013,7,20,2,0.001 ,0.009 ,0.026 ,0.2 ,0.001 ,0.010 ,24.9 ,70.5 ,CALM,0.2 
H02,2013,7,20,3,0.002 ,0.019 ,0.028 ,0.2 ,0.001 ,0.008 ,24.6 ,70.8 ,WSW,1.1 
H02,2013,7,20,4,0.001 ,0.018 ,0.027 ,0.2 ,0.001 ,0.008 ,24.6 ,70.4 ,WNW,0.5 
H02,2013,7,20,5,0.001 ,0.016 ,0.019 ,0.2 ,0.001 ,0.014 ,24.6 ,73.1 ,CALM,0.2 
H02,2013,7,20,6,0.002 ,0.024 ,0.009 ,0.2 ,0.009 ,0.024 ,24.9 ,72.3 ,CALM,0.2 
H02,2013,7,20,7,0.002 ,0.017 ,0.010 ,0.4 ,0.030 ,0.027 ,26.8 ,67.6 ,ESE,0.7 
H02,2013,7,20,8,0.002 ,0.020 ,0.023 ,0.3 ,0.019 ,0.017 ,26.8 ,66.7 ,SSW,0.8 
H02,2013,7,20,9,0.002 ,0.022 ,0.027 ,0.3 ,0.010 ,0.017 ,27.3 ,67.2 ,SW,0.8 
H02,2013,7,20,10,0.002 ,0.029 ,0.038 ,0.2 ,0.003 ,0.011 ,27.9 ,65.5 ,N,0.6 
H02,2013,7,20,11,0.001 ,0.019 ,0.052 ,0.3 ,0.003 ,0.011 ,29.4 ,59.7 ,NW,0.6 
H02,2013,7,20,12,0.001 ,0.026 ,0.069 ,0.3 ,0.002 ,0.010 ,31.3 ,53.3 ,WNW,0.9 
H02,2013,7,20,13,0.002 ,0.036 ,0.084 ,0.4 ,0.003 ,0.016 ,32.3 ,49.7 ,W,1.2 
H02,2013,7,20,14,0.002 ,0.052 ,0.102 ,0.4 ,0.002 ,0.012 ,32.4 ,48.8 ,WNW,1.6 
H02,2013,7,20,15,0.003 ,0.046 ,0.106 ,0.4 ,0.002 ,0.014 ,33.5 ,46.1 ,SW,2.5 
H02,2013,7,20,16,0.003 ,0.032 ,0.098 ,0.4 ,0.003 ,0.016 ,33.8 ,41.2 ,SW,0.9 
H02,2013,7,20,17,0.002 ,0.031 ,0.082 ,0.4 ,0.006 ,0.021 ,33.8 ,41.8 ,SW,2.4 
H02,2013,7,20,18,0.003 ,0.039 ,0.057 ,0.5 ,0.010 ,0.029 ,31.1 ,55.1 ,SSW,2.1 
H02,2013,7,20,19,0.003 ,0.025 ,0.046 ,0.5 ,0.016 ,0.024 ,30.0 ,60.9 ,S,2.7 
H02,2013,7,20,20,0.002 ,0.025 ,0.041 ,0.4 ,0.014 ,0.016 ,28.7 ,66.8 ,S,2.4 
H02,2013,7,20,21,0.001 ,0.022 ,0.041 ,0.4 ,0.009 ,0.012 ,27.8 ,70.6 ,SSE,1.7 
H02,2013,7,20,22,0.001 ,0.025 ,0.035 ,0.4 ,0.013 ,0.017 ,27.3 ,73.8 ,SE,1.0 
H02,2013,7,20,23,0.001 ,0.025 ,0.036 ,0.4 ,0.007 ,0.013 ,26.7 ,76.2 ,S,1.0 
H02,2013,7,20,24,0.001 ,0.023 ,0.038 ,0.3 ,0.005 ,0.011 ,26.9 ,74.4 ,S,1.1 
H02,2013,7,21,1,***,0.029 ,0.041 ,***,***,***,26.8 ,74.4 ,S,1.0 
H02,2013,7,21,2,0.000 ,0.026 ,0.041 ,0.3 ,0.003 ,0.007 ,26.6 ,76.6 ,S,1.1 
H02,2013,7,21,3,0.001 ,0.020 ,0.042 ,0.2 ,0.003 ,0.006 ,27.0 ,74.3 ,SSE,0.9 
H02,2013,7,21,4,0.000 ,0.041 ,0.040 ,0.2 ,0.003 ,0.006 ,26.8 ,74.7 ,SSE,0.8 
H02,2013,7,21,5,0.000 ,0.029 ,0.037 ,0.2 ,0.003 ,0.008 ,26.7 ,75.7 ,SSW,0.3 
H02,2013,7,21,6,0.000 ,0.022 ,0.031 ,0.3 ,0.005 ,0.009 ,26.6 ,75.7 ,SE,0.5 
H02,2013,7,21,7,0.001 ,0.037 ,0.029 ,0.3 ,0.011 ,0.012 ,27.2 ,74.4 ,SSW,0.6 
H02,2013,7,21,8,0.001 ,0.033 ,0.035 ,0.3 ,0.006 ,0.011 ,27.0 ,74.4 ,NNE,0.8 
H02,2013,7,21,9,0.001 ,0.036 ,0.039 ,0.3 ,0.002 ,0.008 ,28.8 ,67.6 ,SSW,0.5 
H02,2013,7,21,10,0.001 ,0.040 ,0.048 ,0.4 ,0.002 ,0.008 ,28.9 ,67.5 ,N,0.7 
H02,2013,7,21,11,0.002 ,0.044 ,0.061 ,0.4 ,0.002 ,0.008 ,31.6 ,57.6 ,W,0.6 
H02,2013,7,21,12,0.001 ,0.032 ,0.077 ,0.4 ,0.002 ,0.007 ,32.5 ,50.7 ,WSW,0.8 
H02,2013,7,21,13,0.001 ,0.039 ,0.080 ,0.3 ,0.002 ,0.009 ,34.3 ,45.5 ,SSW,1.2 
H02,2013,7,21,14,0.001 ,0.028 ,0.077 ,0.3 ,0.001 ,0.007 ,35.2 ,43.7 ,NNW,0.7 
H02,2013,7,21,15,0.001 ,0.029 ,0.073 ,0.2 ,0.002 ,0.008 ,35.5 ,42.3 ,SW,1.3 
H02,2013,7,21,16,0.001 ,0.027 ,0.067 ,0.3 ,0.004 ,0.011 ,35.3 ,45.1 ,W,1.0 